STARLINK-35953

Last updated on Wed Dec 31 2025 00:02:07 GMT+0000 (Coordinated Universal Time)

1 66637U 25271W 25364.60299754 .00085542 00000+0 21256-2 0 9998 2 66637 53.1614 102.6508 0001524 63.3415 296.7746 15.39605749 6967
UTC large
Height (km)
Speed (km/s)
/
Latitude / Longitude
Inclination (degrees)
Orbital Period (minutes)
Azimuth
Elevation
Range (km)
Doppler Factor

Next 0 passes for location: London (51.5072 / 0.1276)

Sorry there are no passes over London.